Md. Asadullah

(11th july)

Stats

» Click to list general statistics » OR, select a date :

General Statistics

Visitors of the poet

Number of visitors of the poet’s mainpage in PoemHunter.Com

Attention : Numbers in this table does not indicate the total hits of poems of the poet, but indicates the hits of the poet’s main page.

Date Hits
07/23/2014 Wednesday 65
70%
07/22/2014 Tuesday 33
35%
07/21/2014 Monday 22
23%
07/20/2014 Sunday 92
100%
07/19/2014 Saturday 33
35%
07/18/2014 Friday 13
14%
07/17/2014 Thursday 22
23%
07/16/2014 Wednesday 23
25%
07/15/2014 Tuesday 23
25%
07/14/2014 Monday 36
39%
07/13/2014 Sunday 53
57%
07/12/2014 Saturday 31
33%
07/11/2014 Friday 53
57%
07/10/2014 Thursday 31
33%
07/09/2014 Wednesday 40
43%
07/08/2014 Tuesday 38
41%
07/07/2014 Monday 43
46%
07/06/2014 Sunday 53
57%
07/05/2014 Saturday 16
17%
07/04/2014 Friday 50
54%

Reader rating & num.of MyPoemList’s

Click the captions of columns to change the order.

# Poem Title Submit Date Reader Rating Num.of MyPoemList’s
Rating Num.R.
1 I am Gaza, 'Mother of all Prisons' 07/20/2014 10.0 1 0
2 Me, The Loner 07/20/2014 10.0 1 0
3 Gaza and The Warning 07/20/2014 10.0 1 0
4 Ignorant Sufi is tool of the Satan 07/20/2014 10.0 1 0
5 Helpless finger! 06/22/2014 10.0 2 0
6 Today 05/11/2014 8.3 3 0
7 Except one 05/11/2014 7.5 2 0
8 Darwin's Theory(science or fairy-tale) 05/05/2014 7.5 2 0
9 Destination 04/26/2014 10.0 2 0
10 Don't take name of martyrs 04/20/2014 10.0 2 0
11 It could be within us 04/06/2014 10.0 2 0
12 Wall of Ego 04/06/2014 10.0 2 0
13 I Just Don't Care 04/06/2014 10.0 1 0
14 Color Unseen 04/02/2014 10.0 2 0
15 East, West, Best 04/02/2014 10.0 3 0
16 Talk/Walk 04/02/2014 10.0 1 0
17 Only one 04/02/2014 10.0 2 0
18 They all.. 03/31/2014 10.0 1 0
19 EQUAL doesn't mean IDENTICAL 03/29/2014 7.5 2 0
20 Agree or Disagree 03/29/2014 10.0 2 0
21 Different Perspective 03/29/2014 10.0 1 0
22 I Know How They Tame Wild Elephants 03/24/2014 10.0 1 0
23 Gandhiji's Statue 03/24/2014 10.0 1 0
24 Wise Men! - A Piece Of Advice 03/21/2014 10.0 1 0
25 Character Certificates 03/19/2014 10.0 1 0
26 Holi-day and Holiday 03/19/2014 10.0 1 0
27 Sun, Moon And My Imagination 03/19/2014 10.0 2 0
28 O East! 03/19/2014 10.0 1 0
29 O Tree Of Art! 03/19/2014 10.0 1 0
30 Freedom's Journey 03/17/2014 10.0 1 0
31 Declaration 03/17/2014 10.0 1 0
32 Let Me Give You This Shock(Global Warming) 03/15/2014 10.0 1 0
33 My Thoughts On Your Thoughts 03/15/2014 10.0 1 0
34 Pack Of Wolves And An Ass 03/14/2014 5.5 2 0
35 Effective Decision Making 03/14/2014 10.0 1 0
36 English translation of my Urdu 1 Poem 03/14/2014 10.0 1 0
37 - -Quran 75. The Rising Of The Dead, Resurrection- - 03/05/2014 10.0 1 0
38 Never Despise Any Old Book 03/03/2014 10.0 2 0
39 Urdu 1 03/02/2014 10.0 1 0
40 I Wished For Thousand Springs 03/01/2014 10.0 1 0
41 Buttering And Oiling 03/01/2014 10.0 1 0
42 Burn all these 'Old age homes' 03/01/2014 10.0 1 0
43 God's Mercy Prevails Over His Wrath. 03/01/2014 10.0 1 0
44 Honest/Dishonest 03/01/2014 10.0 1 0
45 Is It Something In Me..... 03/01/2014 10.0 1 0
46 Mercy 02/23/2014 10.0 1 0
47 Protest against double standards 02/23/2014 10.0 1 0
48 Two breaths of Hellfire 02/16/2014 10.0 3 0
49 Aimless iv 02/16/2014 10.0 1 0
50 Let's show the shiny part 02/16/2014 10.0 1 0
51 My Real Tongue 02/15/2014 10.0 1 0
52 Homo sapiens 02/15/2014 10.0 1 0
53 Standing amongst stones... 02/15/2014 10.0 1 0
54 Elections 2014(iii) 02/08/2014 10.0 1 0
55 Kill..... 02/08/2014 10.0 1 0
56 Soldier and Author 02/02/2014 10.0 1 0
57 Spoken words 02/02/2014 10.0 1 0
58 Death will be put to death! 02/02/2014 10.0 1 0
59 Truth's naked dance 01/26/2014 10.0 1 0
60 Broken wings and dead smiles 01/19/2014 10.0 1 0
61 Dead Leaves 01/18/2014 10.0 1 0
62 Message On 12 Rabi Ul Awal 01/14/2014 10.0 1 0
63 I doubt! 01/04/2014 10.0 1 0
64 Environment friendly Poem 01/01/2014 10.0 1 0
65 Elections 2014(i) 01/01/2014 10.0 1 0
66 Destiny is like shadow 01/01/2014 10.0 1 0
67 little by little I see my henna plant grow 01/01/2014 -- 0 0
68 Inside Job! - 9/11 01/01/2014 -- 0 0
69 My enemy let us compete 01/01/2014 -- 0 0
70 Why I've reached my destination so late 01/01/2014 -- 0 0
71 Aimless ii 01/01/2014 10.0 1 0
72 Waliullah - Friend of Allah(swt) 01/01/2014 -- 0 0
73 Elections 2014(ii) 01/01/2014 10.0 1 0
74 Blessed birth of Jesus(Pbuh) - [Islamic perspective] 01/01/2014 10.0 1 0
75 Yes, I confess... 01/01/2014 10.0 1 0
76 Answering Atheism ii 01/01/2014 10.0 1 0
77 I stand 'tween right and wrong. 01/01/2014 10.0 1 0
78 Love 01/01/2014 -- 0 0
79 All Praise Is Due To Allah 01/01/2014 10.0 1 0
80 Am I Still Alive? 01/01/2014 -- 0 0
81 Yesterday my childhood came 01/01/2014 10.0 1 0
82 What is life? 01/01/2014 10.0 1 0
83 Satan's three knots 01/01/2014 -- 0 0
84 Sun and Doomsday 01/01/2014 10.0 1 0
85 Way to my destination 01/01/2014 -- 0 0
86 Aimless iii 01/01/2014 10.0 1 0
87 Poem 01/01/2014 10.0 1 0
88 A Muslim's prayer 01/01/2014 10.0 2 0
89 A meeting with beloved Bapu(Gandhi) 01/01/2014 10.0 1 0
90 I want to be alone 01/01/2014 -- 0 0
91 Through windows of time 01/01/2014 10.0 1 0
92 Revealed - My Patriotism 01/01/2014 10.0 1 0
93 Ant 01/01/2014 10.0 1 0
94 Have You Ever Seen It Brush? 01/01/2014 -- 0 0
95 Or is that me who is sad? 01/01/2014 10.0 1 0
96 Unwritten Soul 01/01/2014 -- 0 0
97 Aimless i 01/01/2014 10.0 1 0
98 Bomb Blast 01/01/2014 -- 0 0
99 In Search of Fear 01/01/2014 -- 0 0
100 TEMPTATION 01/01/2014 -- 0 0
101 Revolution 01/01/2014 -- 0 0
102 SALAAT 01/01/2014 -- 0 0
103 RUGBY 01/01/2014 -- 0 0
104 Jealousy 01/01/2014 -- 0 0
105 LIE 01/01/2014 -- 0 0
106 Death 01/01/2014 -- 0 0
107 FANTASY 01/01/2014 -- 0 0
108 My Imagination 01/01/2014 -- 0 0
109 DANCE OF A FAKIR 01/01/2014 -- 0 0
110 I AM MAN 01/01/2014 10.0 1 0
111 NOSTALGIA 01/01/2014 10.0 1 0
112 GOING INTO DEPRESSION 01/01/2014 -- 0 0
113 SILENCE SPEAKS 01/01/2014 -- 0 0
114 Blessed Birth of Prophet(PBUH) 01/01/2014 10.0 1 0
115 ISLAM 01/01/2014 -- 0 0
116 CIGARETTE PERSONIFIED 01/01/2014 10.0 1 0
117 SUICIDE 01/01/2014 -- 0 0
118 *REFLECTION 01/01/2014 10.0 1 0
119 Where are you my love, where are you? 01/01/2014 -- 0 0
120 LMDians 01/01/2014 -- 0 0
121 MAN OR MACHINE 01/01/2014 -- 0 0
122 ISLAM THE TOUCHSTONE 01/01/2014 -- 0 0
123 EXTRA INITIATIVE 01/01/2014 -- 0 0
124 SECRET REVEALED 01/01/2014 -- 0 0
125 FRIEND FOUND 01/01/2014 -- 0 0
126 IF......., THEN 01/01/2014 -- 0 0
127 ACCEPT ME OR REJECT ME 01/01/2014 10.0 1 0
128 Voice Against Terrorism. 01/01/2014 10.0 1 0
129 Injustice and Patience 01/01/2014 -- 0 0
130 SECRET SINS 01/01/2014 -- 0 0
131 Urdu - In praise of Prophet(Pbuh) 01/01/2014 -- 0 0
132 Urdu - Dosti 01/01/2014 -- 0 0
133 Urdu - 01/01/2014 -- 0 0
134 Answering Atheism i 01/01/2014 10.0 1 0
135 Night Shift 01/01/2014 -- 0 0
136 Terrorism condemned 01/01/2014 10.0 1 0
[Hata Bildir]